This is the latest recevied weather packets stored in our database for station/object eb1ayw-13. If no packets are shown the sender has not sent any weather packets the latest 10 day(s).
| Time | Temp. | Humidity | Pressure | Rain* | Wind** | Luminosity | Snow |
|---|---|---|---|---|---|---|---|
| 1778097469 | 42.78° C | 12% | 1000 hPa | - | - | - | - |
| 1778096869 | 41.11° C | 13% | 1000.3 hPa | - | - | - | - |
| 1778096269 | 42.78° C | 12% | 999.8 hPa | - | - | - | - |
| 1778095669 | 43.89° C | 11% | 999.5 hPa | - | - | - | - |
| 1778095069 | 44.44° C | 11% | 999.3 hPa | - | - | - | - |
| 1778094469 | 41.67° C | 12% | 999.9 hPa | - | - | - | - |
| 1778093869 | 43.33° C | 11% | 999.5 hPa | - | - | - | - |
| 1778093270 | 42.78° C | 12% | 999.6 hPa | - | - | - | - |
| 1778092669 | 42.22° C | 11% | 999.6 hPa | - | - | - | - |
| 1778092069 | 40.56° C | 12% | 1000.2 hPa | - | - | - | - |
| 1778091469 | 44.44° C | 11% | 999.2 hPa | - | - | - | - |
| 1778090869 | 40.56° C | 12% | 1000.3 hPa | - | - | - | - |
| 1778090269 | 41.67° C | 12% | 1000 hPa | - | - | - | - |
| 1778089669 | 43.33° C | 11% | 999.7 hPa | - | - | - | - |
| 1778089069 | 41.67° C | 12% | 1000.1 hPa | - | - | - | - |
| 1778088469 | 43.33° C | 11% | 999.7 hPa | - | - | - | - |
| 1778087869 | 41.67° C | 12% | 1000.2 hPa | - | - | - | - |
| 1778087269 | 46.67° C | 9% | 998.9 hPa | - | - | - | - |
| 1778086669 | 42.78° C | 11% | 1000 hPa | - | - | - | - |
| 1778086069 | 47.22° C | 9% | 998.8 hPa | - | - | - | - |
| 1778085469 | 43.33° C | 10% | 999.8 hPa | - | - | - | - |
| 1778084869 | 43.89° C | 10% | 999.7 hPa | - | - | - | - |
| 1778084269 | 46.11° C | 9% | 999.1 hPa | - | - | - | - |
| 1778083669 | 47.22° C | 8% | 998.9 hPa | - | - | - | - |
| 1778083069 | 45.56° C | 10% | 999.4 hPa | - | - | - | - |
* Rain since midnight (hover to see other rain measurements)
** Current wind speed in m/s (hover to see current wind gust speed)